WetterOnline ( https://www.wetteronline.de )

Wetter aktuell Warburg

Aktuelles Wetter: Warburg (237m)

6-stündlich | Neueste Meldungen
Ortszeit Temperatur Wetter
So, 03.03. 1:00 4.9° C bedeckt
Sa, 02.03. 19:00 10.4° C wolkig
Sa, 02.03. 13:00 11.3° C wolkig
Sa, 02.03. 7:00 3.5° C bewölkt
Sa, 02.03. 1:00 5.8° C bedeckt
Fr, 01.03. 19:00 7.1° C bedeckt
Fr, 01.03. 13:00 7.9° C bewölkt
Fr, 01.03. 7:00 2.4° C wolkig
Ortszeit Temperatur Wetter
So, 03.03. 5:30 3.4° C wolkig
So, 03.03. 5:20 3.4° C wolkig
So, 03.03. 5:10 3.6° C wolkig
So, 03.03. 5:00 2.6° C bedeckt
So, 03.03. 4:50 2.6° C bedeckt
So, 03.03. 4:40 2.7° C bedeckt
So, 03.03. 4:30 3.1° C bedeckt
So, 03.03. 4:00 3.0° C bedeckt
So, 03.03. 3:30 3.9° C bedeckt
So, 03.03. 3:00 3.4° C bedeckt
So, 03.03. 2:30 3.6° C bedeckt
Ortszeit Relative Feuchte Sichtweite
So, 03.03. 1:00 85% 30 km
Sa, 02.03. 19:00 61% 50 km
Sa, 02.03. 13:00 59% 55 km
Sa, 02.03. 7:00 94% 8 km
Sa, 02.03. 1:00 84% 35 km
Fr, 01.03. 19:00 79% 35 km
Fr, 01.03. 13:00 77% 21 km
Fr, 01.03. 7:00 93% 7 km
Ortszeit Relative Feuchte Sichtweite
So, 03.03. 5:30 92% 19 km
So, 03.03. 5:20 92% -
So, 03.03. 5:10 92% -
So, 03.03. 5:00 94% 13 km
So, 03.03. 4:50 94% -
So, 03.03. 4:40 94% -
So, 03.03. 4:30 94% 16 km
So, 03.03. 4:00 95% 17 km
So, 03.03. 3:30 93% 23 km
So, 03.03. 3:00 93% 23 km
So, 03.03. 2:30 89% 20 km
Ortszeit Niederschlagsmenge Niederschlagsart
So, 03.03. 1:00 0.0 l/m2 in 6 Std. -
Sa, 02.03. 19:00 0.0 l/m2 in 12 Std. -
Sa, 02.03. 13:00 0.0 l/m2 in 6 Std. -
Sa, 02.03. 7:00 0.0 l/m2 in 12 Std. -
Sa, 02.03. 1:00 0.0 l/m2 in 6 Std. -
Fr, 01.03. 19:00 0.0 l/m2 in 12 Std. -
Fr, 01.03. 13:00 0.0 l/m2 in 6 Std. -
Fr, 01.03. 7:00 0.0 l/m2 in 12 Std. -
Ortszeit Niederschlagsmenge Niederschlagsart
So, 03.03. 5:30 0.0 l/m2 in 30 Min -
So, 03.03. 5:20 keine Meldung -
So, 03.03. 5:10 keine Meldung -
So, 03.03. 5:00 0.0 l/m2 in 1 Std. -
So, 03.03. 4:50 keine Meldung -
So, 03.03. 4:40 keine Meldung -
So, 03.03. 4:30 0.0 l/m2 in 30 Min -
So, 03.03. 4:00 0.0 l/m2 in 1 Std. -
So, 03.03. 3:30 0.0 l/m2 in 30 Min -
So, 03.03. 3:00 0.0 l/m2 in 1 Std. -
So, 03.03. 2:30 0.0 l/m2 in 30 Min -
Ortszeit Stärke Spitze Richtung
km/h Bft. km/h Grad Sektor
So, 03.03. 1:00 4 1 18 150° SO
Sa, 02.03. 19:00 7 2 31 120° SO
Sa, 02.03. 13:00 7 2 29 180° S
Sa, 02.03. 7:00 7 2 14 160° S
Sa, 02.03. 1:00 9 2 20 140° SO
Fr, 01.03. 19:00 6 1 28 160° S
Fr, 01.03. 13:00 14 3 29 170° S
Fr, 01.03. 7:00 11 2 22 180° S
Ortszeit Stärke Spitze Richtung
km/h Bft. km/h Grad Sektor
So, 03.03. 5:30 9 2 13 50° NO
So, 03.03. 5:20 9 2 - 50° NO
So, 03.03. 5:10 6 1 - 70° O
So, 03.03. 5:00 6 1 7 70° O
So, 03.03. 4:50 6 1 - 70° O
So, 03.03. 4:40 6 1 - 80° O
So, 03.03. 4:30 6 1 6 70° O
So, 03.03. 4:00 4 1 7 240° SW
So, 03.03. 3:30 0 0 7 - -
So, 03.03. 3:00 4 1 7 150° SO
So, 03.03. 2:30 4 1 7 150° SO
Ortszeit Untergrenze Bedeckung Gattung
total tief tief mittel hoch
So, 03.03. 1:00 5100 m 8/8 8/8 - - -
Sa, 02.03. 19:00 8400 m 8/8 0/8 - - -
Sa, 02.03. 13:00 1500 m 7/8 3/8 - - -
Sa, 02.03. 7:00 6000 m 8/8 7/8 - - -
Sa, 02.03. 1:00 3600 m 8/8 8/8 - - -
Fr, 01.03. 19:00 3300 m 8/8 8/8 - - -
Fr, 01.03. 13:00 720 m 8/8 5/8 - - -
Fr, 01.03. 7:00 810 m 5/8 5/8 - - -
Ortszeit Bedeckungsgrad in Achtel und Wolkenuntergrenze
So, 03.03. 5:30 2(4800m) 6(5700m)
So, 03.03. 5:20 2(4800m) 6(5700m)
So, 03.03. 5:10 6
So, 03.03. 5:00 8(4800m)
So, 03.03. 4:50 8(4800m)
So, 03.03. 4:40 8
So, 03.03. 4:30 8(5100m) 8(8700m)
So, 03.03. 4:00 8(5700m)
So, 03.03. 3:30 4(4800m) 8(6000m) 8(8400m)
So, 03.03. 3:00 7(4800m) 8(5400m) 8(8400m)
So, 03.03. 2:30 1(3900m) 8(5700m) 8(6000m)
Ortszeit Luftdruck NN (hPa) Tendenz (hPa in 3 Std.)
So, 03.03. 1:00 1004 - 0,4
Sa, 02.03. 19:00 1004 + 0,1
Sa, 02.03. 13:00 1005 - 0,3
Sa, 02.03. 7:00 1005 + 0,3
Sa, 02.03. 1:00 1005 - 0,7
Fr, 01.03. 19:00 1006 + 0,1
Fr, 01.03. 13:00 1006 + 0,1
Fr, 01.03. 7:00 1006 0,0
Ortszeit Luftdruck NN (hPa) Tendenz (hPa in 3 Std.)
So, 03.03. 5:30 1003 - 0,6
So, 03.03. 5:20 1003 keine Meldung
So, 03.03. 5:10 1003 keine Meldung
So, 03.03. 5:00 1003 - 0,8
So, 03.03. 4:50 1003 keine Meldung
So, 03.03. 4:40 1003 keine Meldung
So, 03.03. 4:30 1003 - 1,0
So, 03.03. 4:00 1003 - 0,9
So, 03.03. 3:30 1003 - 0,9
So, 03.03. 3:00 1003 - 0,7
So, 03.03. 2:30 1003 - 0,6
Ortszeit Schneehöhe (cm)
So, 03.03. 1:00 0
Sa, 02.03. 19:00 0
Sa, 02.03. 13:00 0
Sa, 02.03. 7:00 0
Sa, 02.03. 1:00 0
Fr, 01.03. 19:00 0
Fr, 01.03. 13:00 0
Fr, 01.03. 7:00 0
Ortszeit Schneehöhe (cm)
So, 03.03. 5:30 0
So, 03.03. 5:20 0
So, 03.03. 5:10 -
So, 03.03. 5:00 0
So, 03.03. 4:50 0
So, 03.03. 4:40 -
So, 03.03. 4:30 0
So, 03.03. 4:00 0
So, 03.03. 3:30 0
So, 03.03. 3:00 0
So, 03.03. 2:30 0
Link zu dieser Seite / Seite empfehlen

Das Wetter in ...